ATS 1 1 02608U 66110A 12034.50538958 -.00000056 +00000-0 +10000-3 0 02778 2 02608 006.3017 306.4189 0004973 197.6180 162.5167 01.00314870082159 ATS 3 1 03029U 67111A 12035.78804912 -.00000085 +00000-0 +10000-3 0 09190 2 03029 008.0086 312.5995 0017660 072.7617 287.5565 01.00272224162032 DEBUT (ORIZURU) 1 20479U 90013B 12036.92674107 -.00000033 +00000-0 -79210-5 0 01504 2 20479 099.0641 153.4280 0540024 140.8711 223.2762 12.83722562030693 MAQSAT H 1 25023U 97066A 12036.09592160 -.00000151 +00000-0 -20604-3 0 00731 2 25023 007.7409 033.0066 6502595 137.1734 297.7429 03.09564408161183 MAQSAT B 1 25024U 97066B 12036.50359676 -.00000096 +00000-0 +19832-3 0 00975 2 25024 007.8014 029.8985 6517576 142.5671 288.6595 03.08776121161027 TEAMSAT 1 25025U 97066C 12035.42253644 -.00000087 00000-0 47336-3 0 918 2 25025 007.7629 048.1680 6522739 107.0111 329.9319 03.07918864160536 OPAL 1 26063U 00004C 12036.96060594 +.00000100 +00000-0 +54102-4 0 03195 2 26063 100.2171 014.3352 0037107 067.3699 293.1398 14.36046783630261 FALCONSAT 1 26064U 00004D 12036.95639606 +.00000176 +00000-0 +80858-4 0 02752 2 26064 100.2172 011.6964 0038352 076.4095 284.1347 14.35579471630084 PICOSAT 1&2 (TETHERED) 1 26080U 00004H 12036.97683521 .00000393 00000-0 14053-3 0 7857 2 26080 100.2275 046.5928 0032017 356.9262 003.1715 14.40893051630242 PICOSAT 3 1 26091U 00004J 12036.57540500 +.00000693 +00000-0 +21743-3 0 04162 2 26091 100.2180 062.9695 0030799 305.8557 053.9765 14.44440337630435 PICOSAT 4 1 26092U 00004K 12036.73683341 .00000478 00000-0 16656-3 0 2382 2 26092 100.2176 039.1217 0034890 352.9901 007.0801 14.40928647629428 PICOSAT 5 1 26093U 00004L 12036.55363889 +.00000816 +00000-0 +24431-3 0 01470 2 26093 100.2088 072.4398 0031770 280.4770 079.2862 14.46128382631216 PICOSAT 6 1 26094U 00004M 12036.95554730 +.00000378 +00000-0 +13738-3 0 02890 2 26094 100.2205 036.8952 0035226 005.7981 354.3586 14.40197452628898 SNAP 1 1 26386U 00033C 12036.95769499 +.00000424 +00000-0 +86783-4 0 05342 2 26386 098.2567 096.0200 0012374 055.9577 304.2800 14.65748575620306 CHAMP (Decayed 2010-09-19) 1 26405U 00039B 10262.28192217 .16926560 -14854-5 22725-3 0 6331 2 26405 087.1842 124.2083 0007115 277.6175 082.5269 16.49173276582753 PICOSAT 9 1 26930U 01043B 12036.57921282 -.00000000 +00000-0 +32080-4 0 09400 2 26930 067.0011 073.3104 0002839 314.3479 045.7386 14.30172363540493 PROBA 1 1 26958U 01049B 12036.97028357 +.00000341 +00000-0 +38170-4 0 06344 2 26958 097.4909 072.4387 0081427 044.2012 316.5681 14.90594914559337 CUTE-1 1 27844U 03031E 12036.54514777 .00000208 00000-0 11614-3 0 3039 2 27844 098.7049 046.8485 0008993 245.1425 114.8823 14.20957187446051 CANX-1 1 27847U 03031H 12036.46860681 +.00000169 +00000-0 +97625-4 0 02190 2 27847 098.6962 047.2811 0008360 222.5154 137.5382 14.21207161446100 CUBESAT XI-IV 1 27848U 03031J 12036.24430493 +.00000171 +00000-0 +99747-4 0 02539 2 27848 098.7133 045.8288 0008786 250.2058 109.8169 14.20717528445956 NAXING 1 1 28221U 04012B 12036.92567847 +.00000659 +00000-0 +75693-4 0 01112 2 28221 097.4611 030.7259 0010208 235.4486 124.5769 14.88845567423643 ST5-A 1 28980U 06008A 12036.71396341 +.00011068 +00000-0 +60546-3 0 08446 2 28980 105.6805 060.6015 2290538 153.5135 220.3948 10.75378616227715 ST5-B 1 28981U 06008B 12036.67267118 +.00019838 +16857-5 +63361-3 0 09658 2 28981 105.5212 109.6554 2184989 084.0014 300.3837 11.05105445230357 ST5-C 1 28982U 06008C 12036.64675389 +.00018235 +15954-5 +67830-3 0 09628 2 28982 105.5617 095.4647 2223114 108.1131 277.3230 10.95138166229479 GENESIS 1 1 29252U 06029A 12036.78240791 .00002176 00000-0 15849-3 0 5359 2 29252 064.5087 150.3634 0055442 259.2562 100.2310 15.05483863305823 FALCONSAT 3 1 30776U 07006E 12036.95764750 +.00003349 +00000-0 +22451-3 0 02912 2 30776 035.4340 003.8723 0003430 299.7382 060.3001 15.06554688270295 GENESIS 2 1 31789U 07028A 12036.95542165 +.00001630 +00000-0 +12472-3 0 02839 2 31789 064.5054 182.4576 0043845 310.1662 049.5619 15.05063425253038 APRIZESAT 4 1 35684U 09041D 12036.87678912 .00000601 00000-0 92324-4 0 7944 2 35684 098.0678 307.9309 0048609 282.6653 076.9099 14.76550160135897 APRIZESAT 3 1 35686U 09041F 12036.80345544 .00000710 00000-0 89534-4 0 8009 2 35686 098.0875 318.0828 0077646 257.2849 101.9724 14.83260726136489 PROBA 2 1 36037U 09059B 12036.67227188 -.00000045 00000-0 00000+0 0 7385 2 36037 098.3030 228.3816 0012575 238.1368 121.8604 14.52182081119808 PRISMA (MANGO) 1 36599U 10028B 12036.95845275 +.00000282 +00000-0 +99632-4 0 03023 2 36599 098.2925 215.6897 0043092 181.1201 178.9900 14.41122382086465 PRISMA (TANGO) 1 36827U 10028F 12036.95845714 +.00000265 +00000-0 +94404-4 0 09114 2 36827 098.2917 215.6891 0043443 180.7335 179.3817 14.41122148078235 APRIZESAT 5 1 37792U 11044E 12037.36473698 .00000417 00000-0 72245-4 0 5102 2 37792 098.2486 118.6567 0061723 163.6988 196.6217 14.72534156 25468 APRIZESAT 6 1 37793U 11044F 12037.41167257 .00000426 00000-0 78859-4 0 5163 2 37793 098.2462 117.9035 0049553 162.6360 197.6554 14.69820454 25421